Regional Weather Roundup
Issued by NWS

Home | Current Version | Previous Version | Text Only | Print | Product List | Glossary On
Versions: 1 2 3 4 5 6 7 8 9 10 11 12 13 14 15 16 17 18 19 20 21 22 23 24 25 26 27 28 29 30 31 32 33 34 35 36 37 38 39 40 41 42 43 44 45 46 47 48 49 50
000
ASUS43 KMPX 050910
RWRMN
WEATHER ROUNDUP FOR MINNESOTA
NATIONAL WEATHER SERVICE TWIN CITIES/CHANHASSEN MN
300 AM CST MON DEC 05 2016


NOTE: "FAIR" INDICATES FEW OR NO CLOUDS BELOW 12,000 FEET WITH NO
SIGNIFICANT WEATHER AND/OR OBSTRUCTIONS TO VISIBILITY. N/A MEANS
CURRENT SKY AND/OR WEATHER CONDITIONS ARE NOT AVAILABLE.

MNZ060>063-068>070-051000-
   Twin Cities Metro

CITY           SKY/WX    TMP DP  RH WIND       PRES   REMARKS
TWIN CITIES    CLEAR     29  26  89 CALM      29.81S
ST PAUL        CLEAR     28  28 100 SE7       29.83R WCI  21
CRYSTAL        CLEAR     30  26  85 S3        29.79S
BLAINE         CLEAR     32  32 100 S7        29.80R WCI  26
LAKEVILLE      PTCLDY    25  25 100 CALM      29.81S FOG
EDEN PRAIRIE   CLEAR     31  28  89 CALM      29.80S
SOUTH ST PAUL  CLEAR     28  28  99 CALM      29.82S FOG
LAKE ELMO      FAIR      28  28 100 S5        29.82S WCI  23
$$
MNZ001>005-007-008-013>017-022>024-027-028-051000-
   Northwest Minnesota

CITY           SKY/WX    TMP DP  RH WIND       PRES   REMARKS
BEMIDJI        CLOUDY    27  26  94 W5        29.70R WCI  22
HALLOCK        CLOUDY    30  27  86 W6        29.68S WCI  24
ROSEAU         CLOUDY    30  27  86 W5        29.67R WCI  25
WARROAD        CLOUDY    30  27  86 W6        29.66S WCI  24
THIEF RVR FALL CLOUDY    27  25  92 SW6       29.71R WCI  20
CROOKSTON      CLOUDY    27  27 100 SW9       29.73R WCI  17
FOSSTON        CLOUDY    25  25 100 W3        29.71S
DETROIT LAKES    N/A     27  25  93 CALM      29.71S FOG
MOORHEAD       CLEAR     25  23  93 SE5       29.72S WCI  19
PARK RAPIDS    CLOUDY    28  23  81 W7        29.70R WCI  21
$$
MNZ006-009>011-018-025>026-051000-
   North Central Minnesota

CITY           SKY/WX    TMP DP  RH WIND       PRES   REMARKS
BAUDETTE       CLOUDY    30  26  85 W9        29.65R WCI  22
FLAG ISLAND    CLOUDY    30  28  93 W9        29.63R WCI  22
INTL FALLS     CLOUDY    30  27  88 SW7       29.66R WCI  23
WASKISH        CLOUDY    30  28  93 W12       29.69R WCI  21
BIG FORK       CLOUDY    30  27  86 W6        29.70R WCI  24
LONGVILLE      CLOUDY    30  27  86 W7        29.72R WCI  23
GRAND RAPIDS   CLOUDY    30  27  88 W7        29.73R WCI  23
CRANE LAKE     CLOUDY    28  27  93 CALM      29.69R
ORR            CLOUDY    28  27  93 CALM      29.65R
COOK           CLOUDY    28  27  93 SW5       29.69R WCI  23
$$
MNZ012-019>021-037-051000-
   Northeast Minnesota

CITY           SKY/WX    TMP DP  RH WIND       PRES   REMARKS
DULUTH         CLOUDY    31  28  89 W12       29.71R WCI  22
ELY            CLOUDY    28  28 100 W8        29.67R WCI  20
HIBBING        CLOUDY    29  27  92 W5        29.69R WCI  24
EVELETH        MOCLDY    32  30  92 SW5       29.70R WCI  28
DULUTH HARBOR  CLOUDY    36  30  80 SW12      29.76R
TWO HARBORS    PTCLDY    36  30  80 W5        29.69R
SILVER BAY     CLOUDY    32  30  93 CALM      29.68R
GRAND MARAIS     N/A     34  32  92 W3        29.66R
G MARAIS ARPRT CLOUDY    28  25  86 W3        29.62R
$$
MNZ029>031-032-039>041-046>048-054>057-064-051000-
   West Central Minnesota

CITY           SKY/WX    TMP DP  RH WIND       PRES   REMARKS
FERGUS FALLS   PTCLDY    27  27 100 E5        29.75F WCI  21
WHEATON        CLEAR    N/A N/A N/A E5        29.73F
MORRIS         CLEAR     27  27 100 E7        29.71F WCI  19
ALEXANDRIA     PTCLDY    26  25  96 S5        29.73F WCI  20
ELBOW LAKE     FAIR      27  26  96 CALM      29.72S
WADENA         FOG       21  21 100 CALM      29.72S VSB 1/4
GLENWOOD       PTCLDY    27  25  93 S3        29.74F
APPLETON       CLEAR     28  27  93 SE5       29.73F WCI  23
BENSON         PTCLDY    28  27  93 S8        29.73F WCI  20
ORTONVILLE     CLEAR     27  25  93 CALM      29.71S
MADISON        CLEAR     30  28  93 SE6       29.72F WCI  24
WILLMAR        FAIR      28  28 100 SE3       29.77S
$$
MNZ033>034-036-042>043-049>051-058-059-051000-
   Central Minnesota

CITY           SKY/WX    TMP DP  RH WIND       PRES   REMARKS
ST CLOUD       PTCLDY    28  27  96 CALM      29.77S
PAYNESVILLE    PTCLDY    29  29 100 CALM      29.77S
AITKIN         CLOUDY    34  28  80 SW6       29.73R WCI  29
PINE RIVER     CLOUDY    30  28  93 CALM      29.76S
BRAINERD       CLEAR     26  24  92 S3        29.75R
STAPLES        CLEAR     23  23 100 CALM      29.73S
LONG PRAIRIE   FAIR      25  23  93 SE3       29.75R
LITTLE FALLS   CLEAR     27  27 100 CALM      29.76S
LITCHFIELD     PTCLDY    30  30 100 CALM      29.77F
BUFFALO        CLEAR     30  28  93 CALM      29.80F
MAPLE LAKE     CLEAR     31  31  99 CALM      29.78F
HUTCHINSON     CLEAR     30  30 100 CALM      29.79S
$$
MNZ037-044-045-052-053-051000-
   East Central Minnesota

CITY           SKY/WX    TMP DP  RH WIND       PRES   REMARKS
PRINCETON      CLEAR     28  27  93 CALM      29.78S
MORA           CLEAR     30  28  93 SW5       29.79S WCI  25
CAMBRIDGE      CLEAR     28  27  93 CALM      29.77S FOG
RUSH CITY      CLEAR     30  28  93 SW3       29.79S
MOOSE LAKE     CLOUDY    32  28  86 SW5       29.73S WCI  27
HINCKLEY       FAIR      32  30  93 SW8       29.77R WCI  25
CLOQUET        CLOUDY    32  27  80 W5        29.72R WCI  27
MCGREGOR       CLOUDY    32  30  93 SW3       29.74R
$$
MNZ071>073-080-081-089-090-097-098-051000-
   Southwest Minnesota

CITY           SKY/WX    TMP DP  RH WIND       PRES   REMARKS
MONTEVIDEO     PTCLDY    27  27 100 S6        29.75F WCI  20
GRANITE FALLS  PTCLDY    29  28  92 E6        29.76F WCI  23
CANBY          MOCLDY    36  30  79 CALM      29.73S
MARSHALL       PTCLDY    33  29  85 S5        29.73F WCI  29
REDWOOD FALLS  CLOUDY    30  27  88 SE6       29.76F WCI  24
OLIVIA         PTCLDY    30  28  93 SE5       29.76F WCI  25
PIPESTONE      CLOUDY    34  30  86 S9        29.70F WCI  26
WINDOM         CLOUDY    34  30  86 CALM      29.76F
WORTHINGTON    MOCLDY    33  31  92 S10       29.76S WCI  25
JACKSON        PTCLDY    32  30  93 S8        29.78S WCI  25
TRACY          CLOUDY    37  32  82 S7        29.73F
SLAYTON        CLOUDY    31  30  95 SE7       29.74S WCI  25
$$
MNZ065>067-074>077-082>085-091>093-051000-
   South Central Minnesota

CITY           SKY/WX    TMP DP  RH WIND       PRES   REMARKS
MANKATO        CLEAR     29  28  96 SE7       29.80F WCI  22
NEW ULM        PTCLDY    28  28 100 SE3       29.78F
ST JAMES       PTCLDY    32  30  93 S9        29.79F WCI  24
FAIRMONT       CLEAR     30  29  96 S9        29.81S WCI  22
GLENCOE        CLEAR     32  32 100 CALM      29.79S
FARIBAULT      CLEAR     30  28  93 CALM      29.82S
OWATONNA       CLEAR     32  28  86 S5        29.82S WCI  27
WASECA         CLEAR     32  30  93 S3        29.82F
ALBERT LEA     CLEAR     36  34  93 S5        29.83R
$$
MNZ078>079-086>088-094>096-051000-
   Southeast Minnesota

CITY           SKY/WX    TMP DP  RH WIND       PRES   REMARKS
ROCHESTER      FOG       26  25  96 S10       29.84R VSB 1/4 WCI  16
RED WING       CLEAR     27  27 100 CALM      29.83S FOG
STANTON        CLEAR     31  29  91 CALM      29.81S
DODGE CENTER   PTCLDY    28  28 100 S8        29.83R WCI  20
WINONA         CLOUDY    34  32  93 CALM      29.87R
PRESTON        FOG       31  30  96 SW8       29.85F VSB 1   WCI  24
$$
ABBREVIATIONS USED IN REMARKS
   TC - TEMPERATURES IN CELSIUS
  WCI - WIND CHILL INDEX
   HX - HEAT INDEX
  VSB - VISIBILITY
$$




USA.gov is the U.S. government's official web portal to all federal, state and local government web resources and services.